Regional Weather Roundup
Issued by NWS

Home | Current Version | Previous Version | Text Only | Print | Product List | Glossary On
Versions: 1 2 3 4 5 6 7 8 9 10 11 12 13 14 15 16 17 18 19 20 21 22 23 24 25 26 27 28 29 30 31 32 33 34 35 36 37 38 39 40 41 42 43 44 45 46 47 48 49 50
000
ASUS43 KMKX 291321
RWRWI

WISCONSIN REGIONAL WEATHER ROUNDUP
NATIONAL WEATHER SERVICE MILWAUKEE/SULLIVAN WI
800 AM CDT SAT APR 29 2017

NOTE: "FAIR" INDICATES FEW OR NO CLOUDS BELOW 12,000 FEET WITH NO
SIGNIFICANT WEATHER AND/OR OBSTRUCTIONS TO VISIBILITY.

WIZ001-002-006>008-014>016-023>028-291400-
NORTHWEST WISCONSIN

CITY           SKY/WX    TMP DP  RH WIND       PRES   REMARKS
SUPERIOR ARPT  SUNNY     34  28  78 SW3       30.32R
ASHLAND        SUNNY     35  28  75 S6        30.35R WCI  30
HAYWARD        SUNNY     35  28  75 CALM      30.31R
SIREN          MOSUNNY   37  30  77 CALM      30.32S
CUMBERLAND     SUNNY     36  28  75 SE8       30.31R WCI  29
RICE LAKE      SUNNY     37  29  75 E8        30.33R WCI  30
CHETEK         NOT AVBL
LADYSMITH      SUNNY     35  28  74 E3        30.32S
EAU CLAIRE     SUNNY     38  27  64 E9        30.28F WCI  31
MENOMONIE      SUNNY     38  28  66 NE8       30.30F WCI  32
NEW RICHMOND   SUNNY     38  27  64 E8        30.31R WCI  32
OSCEOLA        SUNNY     39  29  69 E7        30.35R WCI  34
$$

WIZ003>005-009-010-017-018-291400-
NORTH CENTRAL WISCONSIN

CITY           SKY/WX    TMP DP  RH WIND       PRES   REMARKS
MANITOWISH WTR SUNNY     33  26  77 NE5       30.29  WCI  28
ARBOR VITAE    SUNNY     37  27  68 CALM      30.30R
WOODRUFF       SUNNY     37  27  68 CALM      30.30R
RHINELANDER    SUNNY     35  26  69 VRB3      30.30R
EAGLE RIVER    SUNNY     34  21  59 NE9       30.31R WCI  26
LAND O LAKES   SUNNY     34  22  62 E8        30.31S WCI  27
PHILLIPS       CLOUDY    33  26  73 CALM      30.30R
TOMAHAWK       SUNNY     34  24  68 NE3       30.30R
MEDFORD        SUNNY     34  25  70 NE12      30.26F WCI  25
MERRILL        SUNNY     34  27  75 NE6       30.30R WCI  29
$$

WIZ029-030-035-036-043>047-291400-
CENTRAL WISCONSIN

CITY           SKY/WX    TMP DP  RH WIND       PRES   REMARKS
WAUSAU         SUNNY     35  25  66 NE8       30.26S WCI  29
MOSINEE        MOSUNNY   34  27  75 NE12      30.28S WCI  25
MARSHFIELD     CLOUDY    36  26  67 NE12      30.24F WCI  28
STEVENS POINT  SUNNY     35  25  67 NE10      30.27S WCI  27
WAUPACA        SUNNY     40  28  63 N9        30.27F WCI  34
WAUTOMA        MOSUNNY   39  27  62 MISG      30.26F
WISC RAPIDS    CLOUDY    38  26  62 NE12G23   30.27S WCI  30
CAMP DOUGLAS   SUNNY     39  27  60 E14G20    30.25F WCI  31
$$

WIZ011>013-019>022-031-037>040-048>050-291400-
NORTHEAST WISCONSIN

CITY           SKY/WX    TMP DP  RH WIND       PRES   REMARKS
ANTIGO         SUNNY     33  24  70 NE9       30.29R WCI  25
SHAWANO        SUNNY     39  29  66 NE14      30.29S WCI  31
OCONTO         NOT AVBL
STURGEON BAY   MOSUNNY   39  28  64 N16G22    30.28R WCI  30
GREEN BAY      CLOUDY    40  29  64 NE14      30.28R WCI  32
MANITOWOC      MOSUNNY   39  27  62 N12       30.27R WCI  32
APPLETON       MOSUNNY   37  27  65 N13       30.25R WCI  29
CLINTONVILLE   SUNNY     37  28  70 NE10      30.28S WCI  30
OSHKOSH        CLOUDY    39  29  67 NE15      30.25R WCI  31
$$

WIZ032>034-041-042-053>061-291400-
SOUTHWEST WISCONSIN

CITY           SKY/WX    TMP DP  RH WIND       PRES   REMARKS
LA CROSSE      CLOUDY    41  27  57 E14G20    30.26R
SPARTA         CLOUDY    37  28  69 NE14G20   30.27R WCI  29
VIROQUA        CLOUDY    37  30  74 NE16      30.21R WCI  28
BOSCOBEL       CLOUDY    44  33  65 NE7       30.22R
PRAIRIE DU CHI CLOUDY    43  31  62 NE12      30.21R
PLATTEVILLE    CLOUDY    43  36  75 NE17      30.18S
$$

WIZ056-057-062-063-064-067-068-291400-
SOUTH CENTRAL WISCONSIN

CITY           SKY/WX    TMP DP  RH WIND       PRES   REMARKS
REEDSBURG      CLOUDY    38  27  62 NE14G21   30.24R WCI  30
BARABOO/DELLS  CLOUDY    38  27  63 NE17G24   30.23F WCI  29
LONE ROCK      CLOUDY    42  32  67 E14       30.22S
MINERAL POINT  CLOUDY    43  34  70 NE13      30.19R
MADISON        CLOUDY    40  32  73 NE18      30.22R WCI  31
MIDDLETON      CLOUDY    42  33  72 NE16G22   30.22S
WATERTOWN      CLOUDY    41  34  77 N15       30.23R
MONROE         PTSUNNY   43  34  70 NE17G25   30.18R
JANESVILLE     MOSUNNY   45  34  65 E15       30.18R
$$

WIZ051-052-058>065-066-070>072-291400-
SOUTHEAST WISCONSIN

CITY           SKY/WX    TMP DP  RH WIND       PRES   REMARKS
MILWAUKEE      PTSUNNY   41  33  73 N18G28    30.21R
WAUKESHA       MOSUNNY   37  30  75 NE12G22   30.22R WCI  30
MILWAUKEE/TIMM SUNNY     39  28  65 N16G24    30.23S WCI  30
RACINE         CLOUDY    40  32  73 NE21G30   30.22R WCI  30
KENOSHA        CLOUDY    42  34  73 NE15G24   30.19R
FOND DU LAC    CLOUDY    40  26  57 NE17G25   30.26R WCI  31
SHEBOYGAN      SUNNY     40  33  76 N12       30.27R WCI  33
WEST BEND      MOSUNNY   37  30  75 NE10G20   30.25R WCI  30
JUNEAU         CLOUDY    38  27  66 NE15G22   30.25S WCI  29
$$

LSZ147-162-291400-
LAKE SUPERIOR

STATION/POSITION TIME  TEMP    WIND        PRES    WAVE
                       AIR SEA DIR/SP/G            HT/PER
                 (UTC) (F)     (DEG/KT/KT) (MB)    (FT/S)
DEVILS ISLAND    1300   37      60/  7/  8 1027.7R
PORT WING        1240   34     130/  2/  5 1026.4
SAXON HARBOR     1240   32     190/  4/  6 1027.1R
$$

LMZ867-665-643>646-291400-
LAKE MICHIGAN

STATION/POSITION TIME  TEMP    WIND        PRES    WAVE
                       AIR SEA DIR/SP/G            HT/PER
                 (UTC) (F)     (DEG/KT/KT) (MB)    (FT/S)
CHAMBERS ISLAND  1240   38     330/ 11/ 13 1025.4R
N MID LAKE BUOY  1250   36 37  350/ 14/ 17 1026.5R   1/ 4
NORTHPORT PIER   1240   37     360/ 13/ 16 1025.4R
SISTER BAY       1121   36      30/  9/ 11   N/A
KEWAUNEE LAKESHO 1254   39      10/ 10/ 15 1024.7R
SHEBOYGAN LAKESH 1300   38      30/ 21/ 22 1025.4R
PORT WASHINGTON  1240   41      10/  9/ 19 1025.1R
MILWAUKEE LAKESH 1300   40      20/ 20/ 25   N/A
S MID LAKE BUOY  1250   41 41   20/ 19/ 21 1022.1R   4/ 5
KENOSHA   LAKESH 1300   40      20/ 26/ 30 1022.0
$$

TC  - TEMPERATURE IN CELSIUS
VSB - VISIBILITY IN STATUTE MILES
WCI - WIND CHILL INDEX
HX  - HEAT INDEX





USA.gov is the U.S. government's official web portal to all federal, state and local government web resources and services.